Everett, WA

3:56 PM PST on November 18, 2019 (GMT -0800)
Snohomish County

Weather History for KPAE - August, 2019

Change the Weather History Date:

Tuesday, August 20, 2019

  Actual Average Record
Temperature  
Mean Temperature 68 °F -  
Max Temperature 82 °F 71 °F 87 °F (2016)
Min Temperature 55 °F 53 °F 43 °F (1973)
Cooling Degree Days 2    
Growing Degree Days 18 (Base 50)    
Moisture  
Dew Point 54 °F    
Average Humidity 64    
Maximum Humidity 89    
Minimum Humidity 38    
Precipitation  
Precipitation 0.00 in - - ()
Sea Level Pressure  
Sea Level Pressure 29.95 in    
Wind  
Wind Speed 4 mph (SSW)    
Max Wind Speed 14 mph    
Max Gust Speed -    
Visibility 10 miles    
Events      
Averages and records for this station are not official NWS values.
T = Trace of Precipitation, MM = Missing Value Source: NWS Daily Summary

Daily Weather History Graph

Daily Weather History Graph

Search for Another Location

Airport or City:

Astronomy

Aug. 20, 2019 Rise Set
Actual Time 6:10 AM PDT 8:13 PM PDT
Civil Twilight 5:37 AM PDT 8:46 PM PDT
Nautical Twilight 4:55 AM PDT 9:27 PM PDT
Astronomical Twilight 4:09 AM PDT 10:13 PM PDT
Moon 10:42 PM PDT (8/20) 11:13 AM PDT (8/20)
Length of Visible Light 15h 09m
Length of Day
14h 02m
Waning Gibbous, 77% of the Moon is Illuminated
Aug 20
Waning Gibbous
Aug 23
Last Quarter
Aug 30
New
Sep 5
First Quarter
Sep 13
Full

Hourly Weather History & Observations

Time (PDT) Temp. Heat Index Dew Point Humidity Pressure Visibility Wind Dir Wind Speed Gust Speed Precip Events Conditions
12:53 AM 57.0 °F - 51.1 °F 81% 29.98 in 10.0 mi North 3.5 mph - N/A   Clear
1:53 AM 57.0 °F - 50.0 °F 77% 29.98 in 10.0 mi North 4.6 mph - N/A   Clear
2:53 AM 55.9 °F - 51.1 °F 84% 29.96 in 10.0 mi Calm Calm - N/A   Clear
3:53 AM 55.0 °F - 52.0 °F 89% 29.97 in 10.0 mi NNW 3.5 mph - N/A   Clear
4:53 AM 55.0 °F - 51.1 °F 86% 29.96 in 10.0 mi North 3.5 mph - N/A   Clear
5:53 AM 55.0 °F - 51.1 °F 86% 29.95 in 10.0 mi Calm Calm - N/A   Clear
6:53 AM 57.0 °F - 52.0 °F 83% 29.95 in 10.0 mi Calm Calm - N/A   Clear
7:53 AM 60.1 °F - 54.0 °F 80% 29.96 in 10.0 mi Calm Calm - N/A   Clear
8:53 AM 63.0 °F - 54.0 °F 72% 29.96 in 10.0 mi Calm Calm - N/A   Clear
9:53 AM 66.9 °F - 54.0 °F 63% 29.96 in 10.0 mi South 4.6 mph - N/A   Clear
10:53 AM 70.0 °F - 55.0 °F 59% 29.95 in 10.0 mi Variable 3.5 mph - N/A   Clear
11:53 AM 71.1 °F - 55.0 °F 57% 29.94 in 10.0 mi West 5.8 mph - N/A   Clear
12:53 PM 75.0 °F - 55.9 °F 51% 29.94 in 10.0 mi West 5.8 mph - N/A   Clear
1:53 PM 77.0 °F - 55.9 °F 48% 29.93 in 10.0 mi WSW 6.9 mph - N/A   Clear
2:53 PM 80.1 °F 80.0 °F 54.0 °F 40% 29.92 in 10.0 mi South 6.9 mph - N/A   Clear
3:53 PM 80.1 °F - 52.0 °F 38% 29.91 in 10.0 mi South 10.4 mph - N/A   Clear
4:53 PM 80.1 °F 79.9 °F 53.1 °F 39% 29.90 in 10.0 mi South 9.2 mph - N/A   Clear
5:53 PM 80.1 °F 80.0 °F 54.0 °F 40% 29.90 in 10.0 mi SSW 9.2 mph - N/A   Clear
6:53 PM 78.1 °F - 55.0 °F 45% 29.91 in 10.0 mi SSW 5.8 mph - N/A   Clear
7:53 PM 77.0 °F - 55.9 °F 48% 29.92 in 10.0 mi SW 8.1 mph - N/A   Clear
8:53 PM 66.0 °F - 54.0 °F 65% 29.94 in 10.0 mi NNE 4.6 mph - N/A   Clear
9:53 PM 66.9 °F - 55.0 °F 66% 29.96 in 10.0 mi South 4.6 mph - N/A   Clear
10:53 PM 66.9 °F - 55.9 °F 68% 29.97 in 10.0 mi South 13.8 mph - N/A   Clear
11:53 PM 64.9 °F - 55.0 °F 70% 29.99 in 10.0 mi SSE 13.8 mph - N/A   Clear